FW4741 Weather Reports


time (UTC)temp
C
wind
direction
speed
KPH
gust
KPH
rain 1hr
cm
rain 24hr
cm
rain mn
cm
humidity
%
barometer
mb
20260505205104 29 77 3.2 9.7 0.00 0.00 0.00 35 1020.6
20260505204603 29 77 3.2 9.7 0.00 0.00 0.00 35 1020.6
20260505204103 28 77 3.2 9.7 0.00 0.00 0.00 35 1020.7
20260505203604 28 77 3.2 9.7 0.00 0.00 0.00 35 1020.7
20260505203103 28 77 3.2 9.7 0.00 0.00 0.00 35 1020.7
20260505202103 28 77 3.2 9.7 0.00 0.00 0.00 36 1020.9
20260505201603 28 77 3.2 9.7 0.00 0.00 0.00 36 1020.9
20260505201103 28 77 3.2 9.7 0.00 0.00 0.00 36 1020.9
20260505200603 28 77 3.2 9.7 0.00 0.00 0.00 35 1021.0
20260505195603 28 77 3.2 9.7 0.00 0.00 0.00 36 1021.1
20260505195103 28 77 3.2 9.7 0.00 0.00 0.00 35 1021.2
20260505194603 28 77 3.2 9.7 0.00 0.00 0.00 36 1021.2
20260505193103 28 77 3.2 9.7 0.00 0.00 0.00 35 1021.4
20260505192603 28 77 3.2 9.7 0.00 0.00 0.00 35 1021.4
20260505192103 28 77 3.2 9.7 0.00 0.00 0.00 36 1021.5
20260505191603 28 77 3.2 9.7 0.00 0.00 0.00 35 1021.6
20260505191103 28 77 3.2 9.7 0.00 0.00 0.00 36 1021.7
20260505190603 28 77 3.2 9.7 0.00 0.00 0.00 36 1021.7
20260505190103 28 77 3.2 9.7 0.00 0.00 0.00 37 1021.8
20260505185603 28 77 3.2 9.7 0.00 0.00 0.00 36 1021.8
20260505185103 28 77 3.2 9.7 0.00 0.00 0.00 37 1021.9
20260505184603 27 77 3.2 9.7 0.00 0.00 0.00 37 1022.0
20260505184103 27 77 3.2 9.7 0.00 0.00 0.00 37 1022.1
20260505183103 27 77 3.2 9.7 0.00 0.00 0.00 36 1022.2
20260505182603 27 77 3.2 9.7 0.00 0.00 0.00 36 1022.2
20260505182102 27 77 3.2 9.7 0.00 0.00 0.00 37 1022.3
20260505181604 27 77 3.2 9.7 0.00 0.00 0.00 38 1022.4
20260505181103 27 77 3.2 9.7 0.00 0.00 0.00 37 1022.4
20260505180603 27 77 3.2 9.7 0.00 0.00 0.00 37 1022.5
20260505175103 26 77 3.2 9.7 0.00 0.00 0.00 37 1022.6
20260505173603 26 77 3.2 9.7 0.00 0.00 0.00 37 1022.8
20260505173103 26 77 3.2 9.7 0.00 0.00 0.00 37 1022.9
20260505172604 26 77 3.2 9.7 0.00 0.00 0.00 38 1023.0
20260505172103 26 77 3.2 9.7 0.00 0.00 0.00 36 1023.1
20260505171603 26 77 3.2 9.7 0.00 0.00 0.00 36 1023.1
20260505171103 26 77 3.2 9.7 0.00 0.00 0.00 39 1023.1
20260505170603 26 77 3.2 9.7 0.00 0.00 0.00 38 1023.1
20260505170103 26 77 3.2 9.7 0.00 0.00 0.00 39 1023.1
20260505165603 26 77 3.2 9.7 0.00 0.00 0.00 39 1023.2
20260505165103 25 77 3.2 9.7 0.00 0.00 0.00 37 1023.3
20260505164603 25 77 3.2 9.7 0.00 0.00 0.00 40 1023.3
20260505164104 25 77 3.2 9.7 0.00 0.00 0.00 38 1023.3
20260505163603 25 77 3.2 9.7 0.00 0.00 0.00 41 1023.3
20260505163104 25 77 3.2 9.7 0.00 0.00 0.00 39 1023.3
20260505162103 25 77 3.2 9.7 0.00 0.00 0.00 40 1023.4
20260505161104 24 77 3.2 9.7 0.00 0.00 0.00 41 1023.5
20260505160603 24 77 3.2 9.7 0.00 0.00 0.00 41 1023.5
20260505152603 23 77 3.2 9.7 0.00 0.00 0.00 48 1023.5
20260505152103 22 77 3.2 9.7 0.00 0.00 0.00 49 1023.6
20260505151603 22 77 3.2 9.7 0.00 0.00 0.00 50 1023.6
20260505151104 22 77 3.2 9.7 0.00 0.00 0.00 50 1023.7
20260505150603 21 77 3.2 9.7 0.00 0.00 0.00 51 1023.7
20260505140603 17 77 3.2 9.7 0.00 0.00 0.00 60 1023.6
20260505140104 17 77 3.2 9.7 0.00 0.00 0.00 61 1023.6
20260505130103 14 77 3.2 9.7 0.00 0.00 0.00 67 1023.3
20260505124603 14 77 3.2 9.7 0.00 0.00 0.00 70 1023.3
20260505124103 14 77 3.2 9.7 0.00 0.00 0.00 68 1023.2
20260505123603 15 77 3.2 9.7 0.00 0.00 0.00 67 1023.2
20260505123103 15 77 3.2 9.7 0.00 0.00 0.00 65 1023.1
20260505122603 15 77 3.2 9.7 0.00 0.00 0.00 65 1023.0
20260505121603 15 77 3.2 9.7 0.00 0.00 0.00 66 1022.9
20260505121103 15 77 3.2 9.7 0.00 0.00 0.00 65 1022.8
20260505120603 15 77 3.2 9.7 0.00 0.00 0.00 65 1022.8
20260505120103 15 77 3.2 9.7 0.00 0.00 0.00 65 1022.7
20260505115603 15 77 3.2 9.7 0.00 0.00 0.00 65 1022.7
20260505115103 15 77 3.2 9.7 0.00 0.00 0.00 65 1022.6
20260505114603 15 77 3.2 9.7 0.00 0.00 0.00 65 1022.6
20260505114103 15 77 3.2 9.7 0.00 0.00 0.00 65 1022.5
20260505113603 15 77 3.2 9.7 0.00 0.00 0.00 66 1022.5
20260505113103 15 77 3.2 9.7 0.00 0.00 0.00 66 1022.5
20260505112103 15 77 3.2 9.7 0.00 0.00 0.00 66 1022.5
20260505111603 15 77 3.2 9.7 0.00 0.00 0.00 65 1022.4
20260505111103 15 77 3.2 9.7 0.00 0.00 0.00 65 1022.4
20260505110603 15 77 3.2 9.7 0.00 0.00 0.00 65 1022.4
20260505110104 15 77 3.2 9.7 0.00 0.00 0.00 65 1022.4
20260505102103 16 77 3.2 9.7 0.00 0.00 0.00 62 1022.3
20260505101603 16 77 3.2 9.7 0.00 0.00 0.00 62 1022.3
20260505101103 16 77 3.2 9.7 0.00 0.00 0.00 62 1022.3
20260505100603 16 77 3.2 9.7 0.00 0.00 0.00 62 1022.3
20260505100103 16 77 3.2 9.7 0.00 0.00 0.00 61 1022.3
20260505095103 16 77 3.2 9.7 0.00 0.00 0.00 60 1022.3
20260505094603 16 77 3.2 9.7 0.00 0.00 0.00 59 1022.3
20260505094103 16 77 3.2 9.7 0.00 0.00 0.00 59 1022.3
20260505093603 16 77 3.2 9.7 0.00 0.00 0.00 60 1022.3
20260505093103 16 77 3.2 9.7 0.00 0.00 0.00 61 1022.3
20260505092603 16 77 3.2 9.7 0.00 0.00 0.00 62 1022.3
20260505092103 15 77 3.2 9.7 0.00 0.00 0.00 63 1022.4
20260505091603 16 77 3.2 9.7 0.00 0.00 0.00 62 1022.3
20260505091104 16 77 3.2 9.7 0.00 0.00 0.00 61 1022.3
20260505090603 16 77 3.2 9.7 0.00 0.00 0.00 59 1022.3
20260505085603 16 77 3.2 9.7 0.00 0.00 0.00 59 1022.2
20260505085103 16 77 3.2 9.7 0.00 0.00 0.00 58 1022.2
20260505084604 16 77 3.2 9.7 0.00 0.00 0.00 58 1022.2
20260505084103 16 77 3.2 9.7 0.00 0.00 0.00 58 1022.2
20260505083603 16 77 3.2 9.7 0.00 0.00 0.00 60 1022.2
20260505083104 16 77 3.2 9.7 0.00 0.00 0.00 59 1022.1
20260505082604 16 77 3.2 9.7 0.00 0.00 0.00 60 1022.1
20260505081603 17 77 3.2 9.7 0.00 0.00 0.00 56 1022.1
20260505081103 17 77 3.2 9.7 0.00 0.00 0.00 57 1022.1
20260505080604 17 77 3.2 9.7 0.00 0.00 0.00 58 1022.1
20260505080103 17 77 3.2 9.7 0.00 0.00 0.00 58 1022.0
20260505075603 16 77 3.2 9.7 0.00 0.00 0.00 58 1022.0
20260505075103 16 77 3.2 9.7 0.00 0.00 0.00 59 1022.1
20260505074603 17 77 3.2 9.7 0.00 0.00 0.00 59 1022.1
20260505074103 17 77 3.2 9.7 0.00 0.00 0.00 59 1022.2
20260505073603 17 77 3.2 9.7 0.00 0.00 0.00 55 1022.2
20260505072603 17 77 3.2 9.7 0.00 0.00 0.00 55 1022.1
20260505072103 17 77 3.2 9.7 0.00 0.00 0.00 55 1022.2
20260505071603 17 77 3.2 9.7 0.00 0.00 0.00 54 1022.2
20260505071103 18 77 3.2 9.7 0.00 0.00 0.00 55 1022.2
20260505070603 18 77 3.2 9.7 0.00 0.00 0.00 54 1022.3
20260505065603 18 77 3.2 9.7 0.00 0.00 0.00 55 1022.3
20260505065103 18 77 3.2 9.7 0.00 0.00 0.00 56 1022.3
20260505064603 18 77 3.2 9.7 0.00 0.00 0.00 56 1022.3
20260505064103 18 77 3.2 9.7 0.00 0.00 0.00 55 1022.3
20260505063603 18 77 3.2 9.7 0.00 0.00 0.00 55 1022.3
20260505063103 18 77 3.2 9.7 0.00 0.00 0.00 55 1022.3
20260505062603 18 77 3.2 9.7 0.00 0.00 0.00 54 1022.3
20260505062103 18 77 3.2 9.7 0.00 0.00 0.00 54 1022.3
20260505061603 18 77 3.2 9.7 0.00 0.00 0.00 51 1022.3
20260505061102 18 77 3.2 9.7 0.00 0.00 0.00 51 1022.3
20260505060603 18 77 3.2 9.7 0.00 0.00 0.00 52 1022.4
20260505060103 19 77 3.2 9.7 0.00 0.00 0.00 52 1022.4
20260505055603 19 77 3.2 9.7 0.00 0.00 0.00 51 1022.3
20260505055103 18 77 3.2 9.7 0.00 0.00 0.00 51 1022.3
20260505054603 18 77 3.2 9.7 0.00 0.00 0.00 53 1022.4
20260505054103 19 77 3.2 9.7 0.00 0.00 0.00 54 1022.4
20260505053604 19 77 3.2 9.7 0.00 0.00 0.00 53 1022.3
20260505053103 20 77 3.2 9.7 0.00 0.00 0.00 52 1022.4
20260505052603 20 77 3.2 9.7 0.00 0.00 0.00 51 1022.4
20260505051603 20 77 3.2 9.7 0.00 0.00 0.00 49 1022.4
20260505050603 20 77 3.2 9.7 0.00 0.00 0.00 49 1022.3
20260505050103 20 77 3.2 9.7 0.00 0.00 0.00 49 1022.3
20260505041603 20 77 3.2 9.7 0.00 0.00 0.00 46 1022.2
20260505040603 21 77 3.2 9.7 0.00 0.00 0.00 47 1022.2
20260505035603 21 77 3.2 9.7 0.00 0.00 0.00 46 1022.0
20260505035103 21 77 3.2 9.7 0.00 0.00 0.00 46 1022.0
20260505034603 21 77 3.2 9.7 0.00 0.00 0.00 46 1022.0
20260505034103 21 77 3.2 9.7 0.00 0.00 0.00 46 1022.0
20260505033603 21 77 3.2 9.7 0.00 0.00 0.00 45 1021.9
20260505033103 21 77 3.2 9.7 0.00 0.00 0.00 45 1021.8
20260505032603 21 77 3.2 9.7 0.00 0.00 0.00 45 1021.8
20260505032103 22 77 3.2 9.7 0.00 0.00 0.00 44 1021.8
20260505031104 22 77 3.2 9.7 0.00 0.00 0.00 43 1021.7
20260505030603 22 77 3.2 9.7 0.00 0.00 0.00 43 1021.6
20260505025604 22 77 3.2 9.7 0.00 0.00 0.00 42 1021.5
20260505025103 22 77 3.2 9.7 0.00 0.00 0.00 43 1021.5
20260505024603 22 77 3.2 9.7 0.00 0.00 0.00 42 1021.5
20260505024103 22 77 3.2 9.7 0.00 0.00 0.00 42 1021.4
20260505023603 23 77 3.2 9.7 0.00 0.00 0.00 42 1021.4
20260505022604 23 77 3.2 9.7 0.00 0.00 0.00 41 1021.2
20260505022103 24 77 3.2 9.7 0.00 0.00 0.00 40 1021.2
20260505021603 25 77 3.2 9.7 0.00 0.00 0.00 39 1021.1
20260505021103 25 77 3.2 9.7 0.00 0.00 0.00 36 1021.1
20260505020604 26 77 3.2 9.7 0.00 0.00 0.00 35 1021.0
20260505020103 26 77 3.2 9.7 0.00 0.00 0.00 35 1021.0
20260505015604 26 77 3.2 9.7 0.00 0.00 0.00 35 1020.9
20260505015103 26 77 3.2 9.7 0.00 0.00 0.00 35 1020.9
20260505014603 26 77 3.2 9.7 0.00 0.00 0.00 35 1020.8
20260505014104 26 77 3.2 9.7 0.00 0.00 0.00 35 1020.8
20260505013603 26 77 3.2 9.7 0.00 0.00 0.00 35 1020.7
20260505013104 26 77 3.2 9.7 0.00 0.00 0.00 35 1020.6
20260505012603 26 77 3.2 9.7 0.00 0.00 0.00 35 1020.6
20260505012103 26 77 3.2 9.7 0.00 0.00 0.00 35 1020.5
20260505011603 26 77 3.2 9.7 0.00 0.00 0.00 35 1020.5
20260505011103 26 77 3.2 9.7 0.00 0.00 0.00 34 1020.4
20260505010603 27 77 3.2 9.7 0.00 0.00 0.00 34 1020.4
20260505010104 27 77 3.2 9.7 0.00 0.00 0.00 34 1020.4
20260505005604 27 77 3.2 9.7 0.00 0.00 0.00 33 1020.4
20260505005103 27 77 3.2 9.7 0.00 0.00 0.00 33 1020.3
20260505004603 27 77 3.2 9.7 0.00 0.00 0.00 32 1020.3
20260505004103 28 77 3.2 9.7 0.00 0.00 0.00 32 1020.3
20260505003103 28 77 3.2 9.7 0.00 0.00 0.00 32 1020.2
20260505002603 28 77 3.2 9.7 0.00 0.00 0.00 32 1020.2
20260505002103 28 77 3.2 9.7 0.00 0.00 0.00 31 1020.1
20260505001603 28 77 3.2 9.7 0.00 0.00 0.00 31 1020.0
20260505001103 28 77 3.2 9.7 0.00 0.00 0.00 31 1019.9
20260505000604 28 77 3.2 9.7 0.00 0.00 0.00 31 1020.0
20260505000103 28 77 3.2 9.7 0.00 0.00 0.00 31 1019.9
20260504235103 28 77 3.2 9.7 0.00 0.00 0.00 30 1020.0
20260504234603 28 77 3.2 9.7 0.00 0.00 0.00 30 1019.9
20260504234103 29 77 3.2 9.7 0.00 0.00 0.00 30 1019.9
20260504232603 29 77 3.2 9.7 0.00 0.00 0.00 29 1019.9
20260504232103 29 77 3.2 9.7 0.00 0.00 0.00 29 1019.9
20260504231606 29 77 3.2 9.7 0.00 0.00 0.00 30 1020.0
20260504231103 29 77 3.2 9.7 0.00 0.00 0.00 30 1020.0
20260504230603 29 77 3.2 9.7 0.00 0.00 0.00 30 1020.0
20260504225103 29 77 3.2 9.7 0.00 0.00 0.00 30 1020.0
20260504224603 29 77 3.2 9.7 0.00 0.00 0.00 30 1020.1
20260504224103 30 77 3.2 9.7 0.00 0.00 0.00 29 1020.0
20260504223604 30 77 3.2 9.7 0.00 0.00 0.00 30 1020.0
20260504223103 30 77 3.2 9.7 0.00 0.00 0.00 30 1020.1
20260504222604 30 77 3.2 9.7 0.00 0.00 0.00 30 1020.1
20260504222104 30 77 3.2 9.7 0.00 0.00 0.00 30 1020.1
20260504221603 30 77 3.2 9.7 0.00 0.00 0.00 29 1020.1
20260504221103 30 77 3.2 9.7 0.00 0.00 0.00 30 1020.1
20260504220603 30 77 3.2 9.7 0.00 0.00 0.00 30 1020.2
20260504220103 29 77 3.2 9.7 0.00 0.00 0.00 30 1020.3
20260504215104 30 77 3.2 9.7 0.00 0.00 0.00 30 1020.4
20260504214603 29 77 3.2 9.7 0.00 0.00 0.00 30 1020.4
20260504214103 29 77 3.2 9.7 0.00 0.00 0.00 30 1020.4
20260504213603 29 77 3.2 9.7 0.00 0.00 0.00 30 1020.4
20260504213103 29 77 3.2 9.7 0.00 0.00 0.00 30 1020.4
20260504212604 29 77 3.2 9.7 0.00 0.00 0.00 30 1020.4
20260504212104 29 77 3.2 9.7 0.00 0.00 0.00 30 1020.5
20260504211603 28 77 3.2 9.7 0.00 0.00 0.00 31 1020.6
20260504211104 28 77 3.2 9.7 0.00 0.00 0.00 31 1020.6
20260504210603 29 77 3.2 9.7 0.00 0.00 0.00 31 1020.7
20260504205603 28 77 3.2 9.7 0.00 0.00 0.00 31 1020.8